DELTA 1 DEB, 10643

Orbit data source: Space-Track

DELTA 1 DEB, 10643 is space debris in SSO originally from a launch on Thu, 29 Jul 1976 UTC launched from the Air Force Western Test Range (AFWTR). Debris objects in space refer to the collection of defunct objects orbiting the Earth. Examples of debris include non-operational satellites, rocket bodies, and fragments generated from explosions, collisions, or faulty payload assembly.

Loading next visibility...
Identifier
10643, 1976-077D
Orbit
SSO
Country
Flag of USUS
Related business
Manufacturer
Unknown
Mission
Spacecraft
Bus & Motor
Unknown
Mass
Unknown
Launch date (UTC)
1976-07-29 (50 years ago)
Launch vehicle
Unknown
Launch site
Air Force Western Test Range (AFWTR)
Object type
Payload
Rocket body
Debris
Shape & HBR
Unknown shape, 0.1 m
Radar Cross Section
Small (<0.1 m²)

Expand to show TLE details & history
Last TLE update: 1 day ago

TLE from 1 day ago
0 DELTA 1 DEB
1 10643U 76077D   26033.18889488 -.00000084  00000-0 -43233-3 0  9991
2 10643 102.1073   1.9779 0169968 244.5428 134.3316 12.10345999188057
Epoch: 2026-02-02T04:32Z
TLE epoch observation values (Epoch: 2026-02-02T04:32:00.517Z)
Latitude
19.78118°
Longitude
157.18426°
Altitude
1,733.329 km
Speed
6.97 km/s
True Right ascension
23h 50m 17s
True Declination
19° 41' 06"
Sunlit
Object was in daylight at epoch
Visualization orbit readout
Latitude
Unknown
Longitude
Unknown
Altitude
Unknown
Speed
Unknown
Apparent Right ascension
Unknown
Apparent Declination
Unknown
Sunlit
N/A
Visualization observer readout
Local Sidereal Time
07:27:12
Azimuth
Unknown
Elevation
Unknown
Doppler factor
Unknown
Orbital elements
Apogee altitude
1,768.643 km
Perigee altitude
1,496.333 km
Semi-major axis
8,010.625 km
Eccentricity
0.017
Inclination
102.1073°
RAAN
1.9779°
Arg. of periapsis
244.5428°
True anomaly
135.70427°
Mean anomaly
134.3316°
Eccentric anomaly
135.01997°
Mean motion
3.02722 °/min
Orbital period
118.92 mins
BSTAR
-0.00043233
Loading maneuver chart data...
Computing Atmospheric mass density...
Loading historical data...
Loading historical data...
Loading historical data...
Loading historical data...
Loading historical data...
Loading historical data...
Loading historical data...

Documentation

Showing up to 5 results
|